Year,Month,Day,Hour,Minute,Value (Times are PST for temperature in C)
2016,04,25,00,00,6.50
2016,04,25,00,01,6.50
2016,04,25,00,02,6.50
2016,04,25,00,03,6.40
2016,04,25,00,04,6.40
2016,04,25,00,05,6.40
2016,04,25,00,06,6.40
2016,04,25,00,07,6.40
2016,04,25,00,08,6.30
2016,04,25,00,09,6.30
2016,04,25,00,10,6.30
2016,04,25,00,11,6.30
2016,04,25,00,12,6.30
2016,04,25,00,13,6.30
2016,04,25,00,14,6.30
2016,04,25,00,15,6.30
2016,04,25,00,16,6.30
2016,04,25,00,17,6.30
2016,04,25,00,18,6.30
2016,04,25,00,19,6.30
2016,04,25,00,20,6.20
2016,04,25,00,21,6.20
2016,04,25,00,22,6.30
2016,04,25,00,23,6.20
2016,04,25,00,24,6.20
2016,04,25,00,25,6.20
2016,04,25,00,26,6.20
2016,04,25,00,27,6.20
2016,04,25,00,28,6.20
2016,04,25,00,29,6.20
2016,04,25,00,30,6.20
2016,04,25,00,31,6.20
2016,04,25,00,32,6.20
2016,04,25,00,33,6.20
2016,04,25,00,34,6.20
2016,04,25,00,35,6.30
2016,04,25,00,36,6.20
2016,04,25,00,37,6.20
2016,04,25,00,38,6.20
2016,04,25,00,39,6.20
2016,04,25,00,40,6.20
2016,04,25,00,41,6.20
2016,04,25,00,42,6.20
2016,04,25,00,43,6.20
2016,04,25,00,44,6.20
2016,04,25,00,45,6.20
2016,04,25,00,46,6.20
2016,04,25,00,47,6.20
2016,04,25,00,48,6.20
2016,04,25,00,49,6.20
2016,04,25,00,50,6.20
2016,04,25,00,51,6.20
2016,04,25,00,52,6.20
2016,04,25,00,53,6.20
2016,04,25,00,54,6.20
2016,04,25,00,55,6.30
2016,04,25,00,56,6.30
2016,04,25,00,57,6.30
2016,04,25,00,58,6.30
2016,04,25,00,59,6.30
2016,04,25,01,00,6.30
2016,04,25,01,01,6.30
2016,04,25,01,02,6.40
2016,04,25,01,03,6.40
2016,04,25,01,04,6.40
2016,04,25,01,05,6.40
2016,04,25,01,06,6.40
2016,04,25,01,07,6.40
2016,04,25,01,08,6.40
2016,04,25,01,09,6.40
2016,04,25,01,10,6.40
2016,04,25,01,11,6.40
2016,04,25,01,12,6.40
2016,04,25,01,13,6.40
2016,04,25,01,14,6.40
2016,04,25,01,15,6.50
2016,04,25,01,16,6.50
2016,04,25,01,17,6.50
2016,04,25,01,18,6.50
2016,04,25,01,19,6.50
2016,04,25,01,20,6.50
2016,04,25,01,21,6.50
2016,04,25,01,22,6.60
2016,04,25,01,23,6.60
2016,04,25,01,24,6.60
2016,04,25,01,25,6.60
2016,04,25,01,26,6.60
2016,04,25,01,27,6.60
2016,04,25,01,28,6.60
2016,04,25,01,29,6.60
2016,04,25,01,30,6.60
2016,04,25,01,31,6.60
2016,04,25,01,32,6.60
2016,04,25,01,33,6.60
2016,04,25,01,34,6.60
2016,04,25,01,35,6.60
2016,04,25,01,36,6.60
2016,04,25,01,37,6.60
2016,04,25,01,38,6.60
2016,04,25,01,39,6.70
2016,04,25,01,40,6.70
2016,04,25,01,41,6.70
2016,04,25,01,42,6.70
2016,04,25,01,43,6.70
2016,04,25,01,44,6.70
2016,04,25,01,45,6.70
2016,04,25,01,46,6.70
2016,04,25,01,47,6.70
2016,04,25,01,48,6.70
2016,04,25,01,49,6.70
2016,04,25,01,50,6.70
2016,04,25,01,51,6.70
2016,04,25,01,52,6.70
2016,04,25,01,53,6.70
2016,04,25,01,54,6.70
2016,04,25,01,55,6.70
2016,04,25,01,56,6.70
2016,04,25,01,57,6.70
2016,04,25,01,58,6.80
2016,04,25,01,59,6.80
2016,04,25,02,00,6.80
2016,04,25,02,01,6.80
2016,04,25,02,02,6.80
2016,04,25,02,03,6.80
2016,04,25,02,04,6.80
2016,04,25,02,05,6.80
2016,04,25,02,06,6.80
2016,04,25,02,07,6.80
2016,04,25,02,08,6.80
2016,04,25,02,09,6.80
2016,04,25,02,10,6.80
2016,04,25,02,11,6.80
2016,04,25,02,12,6.80
2016,04,25,02,13,6.80
2016,04,25,02,14,6.80
2016,04,25,02,15,6.80
2016,04,25,02,16,6.80
2016,04,25,02,17,6.90
2016,04,25,02,18,6.90
2016,04,25,02,19,6.90
2016,04,25,02,20,6.90
2016,04,25,02,21,6.90
2016,04,25,02,22,6.90
2016,04,25,02,23,6.90
2016,04,25,02,24,6.90
2016,04,25,02,25,6.90
2016,04,25,02,26,6.90
2016,04,25,02,27,6.90
2016,04,25,02,28,6.90
2016,04,25,02,29,6.90
2016,04,25,02,30,6.90
2016,04,25,02,31,6.90
2016,04,25,02,32,6.90
2016,04,25,02,33,6.90
2016,04,25,02,34,6.90
2016,04,25,02,35,6.90
2016,04,25,02,36,6.90
2016,04,25,02,37,7.00
2016,04,25,02,38,7.00
2016,04,25,02,39,7.00
2016,04,25,02,40,7.00
2016,04,25,02,41,7.00
2016,04,25,02,42,7.00
2016,04,25,02,43,7.00
2016,04,25,02,44,7.00
2016,04,25,02,45,7.00
2016,04,25,02,46,7.00
2016,04,25,02,47,7.00
2016,04,25,02,48,7.00
2016,04,25,02,49,7.00
2016,04,25,02,50,7.00
2016,04,25,02,51,6.90
2016,04,25,02,52,6.90
2016,04,25,02,53,6.90
2016,04,25,02,54,6.90
2016,04,25,02,55,6.90
2016,04,25,02,56,6.80
2016,04,25,02,57,6.80
2016,04,25,02,58,6.80
2016,04,25,02,59,6.80
2016,04,25,03,00,6.80
2016,04,25,03,01,6.80
2016,04,25,03,02,6.80
2016,04,25,03,03,6.80
2016,04,25,03,04,6.80
2016,04,25,03,05,6.80
2016,04,25,03,06,6.80
2016,04,25,03,07,6.80
2016,04,25,03,08,6.80
2016,04,25,03,09,6.70
2016,04,25,03,10,6.70
2016,04,25,03,11,6.70
2016,04,25,03,12,6.70
2016,04,25,03,13,6.70
2016,04,25,03,14,6.60
2016,04,25,03,15,6.60
2016,04,25,03,16,6.60
2016,04,25,03,17,6.60
2016,04,25,03,18,6.60
2016,04,25,03,19,6.60
2016,04,25,03,20,6.60
2016,04,25,03,21,6.60
2016,04,25,03,22,6.60
2016,04,25,03,23,6.60
2016,04,25,03,24,6.60
2016,04,25,03,25,6.50
2016,04,25,03,26,6.50
2016,04,25,03,27,6.50
2016,04,25,03,28,6.50
2016,04,25,03,29,6.40
2016,04,25,03,30,6.40
2016,04,25,03,31,6.40
2016,04,25,03,32,6.40
2016,04,25,03,33,6.40
2016,04,25,03,34,6.40
2016,04,25,03,35,6.40
2016,04,25,03,36,6.40
2016,04,25,03,37,6.40
2016,04,25,03,38,6.40
2016,04,25,03,39,6.40
2016,04,25,03,40,6.40
2016,04,25,03,41,6.40
2016,04,25,03,42,6.40
2016,04,25,03,43,6.40
2016,04,25,03,44,6.40
2016,04,25,03,45,6.40
2016,04,25,03,46,6.40
2016,04,25,03,47,6.40
2016,04,25,03,48,6.40
2016,04,25,03,49,6.40
2016,04,25,03,50,6.40
2016,04,25,03,51,6.40
2016,04,25,03,52,6.40
2016,04,25,03,53,6.30
2016,04,25,03,54,6.30
2016,04,25,03,55,6.30
2016,04,25,03,56,6.30
2016,04,25,03,57,6.30
2016,04,25,03,58,6.30
2016,04,25,03,59,6.30
2016,04,25,04,00,6.30
2016,04,25,04,01,6.30
2016,04,25,04,02,6.30
2016,04,25,04,03,6.30
2016,04,25,04,04,6.30
2016,04,25,04,05,6.30
2016,04,25,04,06,6.30
2016,04,25,04,07,6.30
2016,04,25,04,08,6.20
2016,04,25,04,09,6.20
2016,04,25,04,10,6.20
2016,04,25,04,11,6.20
2016,04,25,04,12,6.20
2016,04,25,04,13,6.20
2016,04,25,04,14,6.20
2016,04,25,04,15,6.20
2016,04,25,04,16,6.20
2016,04,25,04,17,6.20
2016,04,25,04,18,6.20
2016,04,25,04,19,6.20
2016,04,25,04,20,6.20
2016,04,25,04,21,6.20
2016,04,25,04,22,6.20
2016,04,25,04,23,6.20
2016,04,25,04,24,6.20
2016,04,25,04,25,6.10
2016,04,25,04,26,6.10
2016,04,25,04,27,6.10
2016,04,25,04,28,6.10
2016,04,25,04,29,6.10
2016,04,25,04,30,6.10
2016,04,25,04,31,6.10
2016,04,25,04,32,6.10
2016,04,25,04,33,6.10
2016,04,25,04,34,6.10
2016,04,25,04,35,6.10
2016,04,25,04,36,6.10
2016,04,25,04,37,6.00
2016,04,25,04,38,6.00
2016,04,25,04,39,6.10
2016,04,25,04,40,6.10
2016,04,25,04,41,6.10
2016,04,25,04,42,6.10
2016,04,25,04,43,6.10
2016,04,25,04,44,6.10
2016,04,25,04,45,6.00
2016,04,25,04,46,6.00
2016,04,25,04,47,6.00
2016,04,25,04,48,6.00
2016,04,25,04,49,6.00
2016,04,25,04,50,6.00
2016,04,25,04,51,6.00
2016,04,25,04,52,6.10
2016,04,25,04,53,6.10
2016,04,25,04,54,6.10
2016,04,25,04,55,6.10
2016,04,25,04,56,6.10
2016,04,25,04,57,6.10
2016,04,25,04,58,6.10
2016,04,25,04,59,6.10
2016,04,25,05,00,6.10
2016,04,25,05,01,6.10
2016,04,25,05,02,6.10
2016,04,25,05,03,6.10
2016,04,25,05,04,6.00
2016,04,25,05,05,6.00
2016,04,25,05,06,6.00
2016,04,25,05,07,6.00
2016,04,25,05,08,6.00
2016,04,25,05,09,6.00
2016,04,25,05,10,6.00
2016,04,25,05,11,6.00
2016,04,25,05,12,5.90
2016,04,25,05,13,5.90
2016,04,25,05,14,5.90
2016,04,25,05,15,5.90
2016,04,25,05,16,5.90
2016,04,25,05,17,5.80
2016,04,25,05,18,5.80
2016,04,25,05,19,5.80
2016,04,25,05,20,5.80
2016,04,25,05,21,5.70
2016,04,25,05,22,5.70
2016,04,25,05,23,5.70
2016,04,25,05,24,5.70
2016,04,25,05,25,5.70
2016,04,25,05,26,5.70
2016,04,25,05,27,5.60
2016,04,25,05,28,5.60
2016,04,25,05,29,5.60
2016,04,25,05,30,5.60
2016,04,25,05,31,5.60
2016,04,25,05,32,5.50
2016,04,25,05,33,5.50
2016,04,25,05,34,5.50
2016,04,25,05,35,5.50
2016,04,25,05,36,5.40
2016,04,25,05,37,5.40
2016,04,25,05,38,5.40
2016,04,25,05,39,5.40
2016,04,25,05,40,5.40
2016,04,25,05,41,5.40
2016,04,25,05,42,5.30
2016,04,25,05,43,5.30
2016,04,25,05,44,5.30
2016,04,25,05,45,5.30
2016,04,25,05,46,5.30
2016,04,25,05,47,5.20
2016,04,25,05,48,5.20
2016,04,25,05,49,5.20
2016,04,25,05,50,5.20
2016,04,25,05,51,5.20
2016,04,25,05,52,5.20
2016,04,25,05,53,5.10
2016,04,25,05,54,5.10
2016,04,25,05,55,5.00
2016,04,25,05,56,5.00
2016,04,25,05,57,4.90
2016,04,25,05,58,4.90
2016,04,25,05,59,4.90
2016,04,25,06,00,4.90
2016,04,25,06,01,4.90
2016,04,25,06,02,4.90
2016,04,25,06,03,4.90
2016,04,25,06,04,4.90
2016,04,25,06,05,4.80
2016,04,25,06,06,4.80
2016,04,25,06,07,4.80
2016,04,25,06,08,4.80
2016,04,25,06,09,4.80
2016,04,25,06,10,4.80
2016,04,25,06,11,4.80
2016,04,25,06,12,4.80
2016,04,25,06,13,4.80
2016,04,25,06,14,4.80
2016,04,25,06,15,4.80
2016,04,25,06,16,4.80
2016,04,25,06,17,4.80
2016,04,25,06,18,4.80
2016,04,25,06,19,4.80
2016,04,25,06,20,4.90
2016,04,25,06,21,4.90
2016,04,25,06,22,4.90
2016,04,25,06,23,4.90
2016,04,25,06,24,4.90
2016,04,25,06,25,4.90
2016,04,25,06,26,4.90
2016,04,25,06,27,4.90
2016,04,25,06,28,4.90
2016,04,25,06,29,4.90
2016,04,25,06,30,4.90
2016,04,25,06,31,4.90
2016,04,25,06,32,5.00
2016,04,25,06,33,5.00
2016,04,25,06,34,5.00
2016,04,25,06,35,5.00
2016,04,25,06,36,5.00
2016,04,25,06,37,5.00
2016,04,25,06,38,5.00
2016,04,25,06,39,5.00
2016,04,25,06,40,5.00
2016,04,25,06,41,5.00
2016,04,25,06,42,5.00
2016,04,25,06,43,5.00
2016,04,25,06,44,5.00
2016,04,25,06,45,5.00
2016,04,25,06,46,5.00
2016,04,25,06,47,5.00
2016,04,25,06,48,5.00
2016,04,25,06,49,5.00
2016,04,25,06,50,5.00
2016,04,25,06,51,5.00
2016,04,25,06,52,5.00
2016,04,25,06,53,5.00
2016,04,25,06,54,5.00
2016,04,25,06,55,5.00
2016,04,25,06,56,5.00
2016,04,25,06,57,5.00
2016,04,25,06,58,5.00
2016,04,25,06,59,5.00
2016,04,25,07,00,5.00
2016,04,25,07,01,5.00
2016,04,25,07,02,5.00
2016,04,25,07,03,5.00
2016,04,25,07,04,5.00
2016,04,25,07,05,5.00
2016,04,25,07,06,5.00
2016,04,25,07,07,5.00
2016,04,25,07,08,5.00
2016,04,25,07,09,5.10
2016,04,25,07,10,5.10
2016,04,25,07,11,5.10
2016,04,25,07,12,5.10
2016,04,25,07,13,5.10
2016,04,25,07,14,5.10
2016,04,25,07,15,5.10
2016,04,25,07,16,5.10
2016,04,25,07,17,5.10
2016,04,25,07,18,5.10
2016,04,25,07,19,5.20
2016,04,25,07,20,5.20
2016,04,25,07,21,5.20
2016,04,25,07,22,5.20
2016,04,25,07,23,5.20
2016,04,25,07,24,5.20
2016,04,25,07,25,5.30
2016,04,25,07,26,5.30
2016,04,25,07,27,5.30
2016,04,25,07,28,5.40
2016,04,25,07,29,5.50
2016,04,25,07,30,5.60
2016,04,25,07,31,5.60
2016,04,25,07,32,5.70
2016,04,25,07,33,5.70
2016,04,25,07,34,5.80
2016,04,25,07,35,5.80
2016,04,25,07,36,5.90
2016,04,25,07,37,5.90
2016,04,25,07,38,5.90
2016,04,25,07,39,5.90
2016,04,25,07,40,6.00
2016,04,25,07,41,6.00
2016,04,25,07,42,6.10
2016,04,25,07,43,6.10
2016,04,25,07,44,6.20
2016,04,25,07,45,6.30
2016,04,25,07,46,6.30
2016,04,25,07,47,6.40
2016,04,25,07,48,6.40
2016,04,25,07,49,6.50
2016,04,25,07,50,6.50
2016,04,25,07,51,6.60
2016,04,25,07,52,6.60
2016,04,25,07,53,6.70
2016,04,25,07,54,6.70
2016,04,25,07,55,6.80
2016,04,25,07,56,6.80
2016,04,25,07,57,6.80
2016,04,25,07,58,6.80
2016,04,25,07,59,6.90
2016,04,25,08,00,6.90
2016,04,25,08,01,6.90
2016,04,25,08,02,7.00
2016,04,25,08,03,7.00
2016,04,25,08,04,7.10
2016,04,25,08,05,7.20
2016,04,25,08,06,7.20
2016,04,25,08,07,7.30
2016,04,25,08,08,7.30
2016,04,25,08,09,7.30
2016,04,25,08,10,7.30
2016,04,25,08,11,7.30
2016,04,25,08,12,7.30
2016,04,25,08,13,7.30
2016,04,25,08,14,7.40
2016,04,25,08,15,7.40
2016,04,25,08,16,7.40
2016,04,25,08,17,7.40
2016,04,25,08,18,7.40
2016,04,25,08,19,7.30
2016,04,25,08,20,7.30
2016,04,25,08,21,7.30
2016,04,25,08,22,7.30
2016,04,25,08,23,7.30
2016,04,25,08,24,7.30
2016,04,25,08,25,7.30
2016,04,25,08,26,7.30
2016,04,25,08,27,7.30
2016,04,25,08,28,7.30
2016,04,25,08,29,7.30
2016,04,25,08,30,7.30
2016,04,25,08,31,7.30
2016,04,25,08,32,7.30
2016,04,25,08,33,7.40
2016,04,25,08,34,7.40
2016,04,25,08,35,7.40
2016,04,25,08,36,7.50
2016,04,25,08,37,7.50
2016,04,25,08,38,7.60
2016,04,25,08,39,7.60
2016,04,25,08,40,7.70
2016,04,25,08,41,7.70
2016,04,25,08,42,7.70
2016,04,25,08,43,7.70
2016,04,25,08,44,7.70
2016,04,25,08,45,7.70
2016,04,25,08,46,7.70
2016,04,25,08,47,7.70
2016,04,25,08,48,7.70
2016,04,25,08,49,7.70
2016,04,25,08,50,7.80
2016,04,25,08,51,7.80
2016,04,25,08,52,7.80
2016,04,25,08,53,7.80
2016,04,25,08,54,7.80
2016,04,25,08,55,7.80
2016,04,25,08,56,7.80
2016,04,25,08,57,7.80
2016,04,25,08,58,7.80
2016,04,25,08,59,7.90
2016,04,25,09,00,7.90
2016,04,25,09,01,8.00
2016,04,25,09,02,8.00
2016,04,25,09,03,8.10
2016,04,25,09,04,8.20
2016,04,25,09,05,8.20
2016,04,25,09,06,8.30
2016,04,25,09,07,8.40
2016,04,25,09,08,8.50
2016,04,25,09,09,8.70
2016,04,25,09,10,8.80
2016,04,25,09,11,8.80
2016,04,25,09,12,8.90
2016,04,25,09,13,9.00
2016,04,25,09,14,9.10
2016,04,25,09,15,9.10
2016,04,25,09,16,9.10
2016,04,25,09,17,9.20
2016,04,25,09,18,9.20
2016,04,25,09,19,9.20
2016,04,25,09,20,9.20
2016,04,25,09,21,9.20
2016,04,25,09,22,9.20
2016,04,25,09,23,9.30
2016,04,25,09,24,9.30
2016,04,25,09,25,9.30
2016,04,25,09,26,9.40
2016,04,25,09,27,9.40
2016,04,25,09,28,9.40
2016,04,25,09,29,9.50
2016,04,25,09,30,9.50
2016,04,25,09,31,9.60
2016,04,25,09,32,9.60
2016,04,25,09,33,9.60
2016,04,25,09,34,9.70
2016,04,25,09,35,9.70
2016,04,25,09,36,9.70
2016,04,25,09,37,9.80
2016,04,25,09,38,9.80
2016,04,25,09,39,9.90
2016,04,25,09,40,9.90
2016,04,25,09,41,10.00
2016,04,25,09,42,10.10
2016,04,25,09,43,10.10
2016,04,25,09,44,10.20
2016,04,25,09,45,10.20
2016,04,25,09,46,10.20
2016,04,25,09,47,10.30
2016,04,25,09,48,10.30
2016,04,25,09,49,10.30
2016,04,25,09,50,10.30
2016,04,25,09,51,10.40
2016,04,25,09,52,10.40
2016,04,25,09,53,10.40
2016,04,25,09,54,10.40
2016,04,25,09,55,10.40
2016,04,25,09,56,10.50
2016,04,25,09,57,10.60
2016,04,25,09,58,10.60
2016,04,25,09,59,10.60
2016,04,25,10,00,10.60
2016,04,25,10,01,10.60
2016,04,25,10,02,10.70
2016,04,25,10,03,10.70
2016,04,25,10,04,10.70
2016,04,25,10,05,10.70
2016,04,25,10,06,10.80
2016,04,25,10,07,10.80
2016,04,25,10,08,10.80
2016,04,25,10,09,10.80
2016,04,25,10,10,10.80
2016,04,25,10,11,10.70
2016,04,25,10,12,10.70
2016,04,25,10,13,10.70
2016,04,25,10,14,10.70
2016,04,25,10,15,10.70
2016,04,25,10,16,10.70
2016,04,25,10,17,10.80
2016,04,25,10,18,10.80
2016,04,25,10,19,10.90
2016,04,25,10,20,11.00
2016,04,25,10,21,11.00
2016,04,25,10,22,11.10
2016,04,25,10,23,11.00
2016,04,25,10,24,11.00
2016,04,25,10,25,11.00
2016,04,25,10,26,11.00
2016,04,25,10,27,11.10
2016,04,25,10,28,11.10
2016,04,25,10,29,11.20
2016,04,25,10,30,11.20
2016,04,25,10,31,11.30
2016,04,25,10,32,11.30
2016,04,25,10,33,11.30
2016,04,25,10,34,11.30
2016,04,25,10,35,11.40
2016,04,25,10,36,11.40
2016,04,25,10,37,11.40
2016,04,25,10,38,11.50
2016,04,25,10,39,11.60
2016,04,25,10,40,11.60
2016,04,25,10,41,11.70
2016,04,25,10,42,11.80
2016,04,25,10,43,11.80
2016,04,25,10,44,11.80
2016,04,25,10,45,11.80
2016,04,25,10,46,11.80
2016,04,25,10,47,11.80
2016,04,25,10,48,11.70
2016,04,25,10,49,11.70
2016,04,25,10,50,11.70
2016,04,25,10,51,11.80
2016,04,25,10,52,11.80
2016,04,25,10,53,11.80
2016,04,25,10,54,11.70
2016,04,25,10,55,11.70
2016,04,25,10,56,11.70
2016,04,25,10,57,11.70
2016,04,25,10,58,11.70
2016,04,25,10,59,11.60
2016,04,25,11,00,11.60
2016,04,25,11,01,11.70
2016,04,25,11,02,11.70
2016,04,25,11,03,11.70
2016,04,25,11,04,11.70
2016,04,25,11,05,11.80
2016,04,25,11,06,11.90
2016,04,25,11,07,11.90
2016,04,25,11,08,12.00
2016,04,25,11,09,12.10
2016,04,25,11,10,12.00
2016,04,25,11,11,11.90
2016,04,25,11,12,11.80
2016,04,25,11,13,11.70
2016,04,25,11,14,11.80
2016,04,25,11,15,11.80
2016,04,25,11,16,11.80
2016,04,25,11,17,11.80
2016,04,25,11,18,11.70
2016,04,25,11,19,11.70
2016,04,25,11,20,11.70
2016,04,25,11,21,11.70
2016,04,25,11,22,11.60
2016,04,25,11,23,11.50
2016,04,25,11,24,11.40
2016,04,25,11,25,11.30
2016,04,25,11,26,11.20
2016,04,25,11,27,11.20
2016,04,25,11,28,11.20
2016,04,25,11,29,11.10
2016,04,25,11,30,11.10
2016,04,25,11,31,11.10
2016,04,25,11,32,11.10
2016,04,25,11,33,11.10
2016,04,25,11,34,11.20
2016,04,25,11,35,11.30
2016,04,25,11,36,11.30
2016,04,25,11,37,11.30
2016,04,25,11,38,11.30
2016,04,25,11,39,11.30
2016,04,25,11,40,11.30
2016,04,25,11,41,11.30
2016,04,25,11,42,11.20
2016,04,25,11,43,11.20
2016,04,25,11,44,11.20
2016,04,25,11,45,11.20
2016,04,25,11,46,11.20
2016,04,25,11,47,11.20
2016,04,25,11,48,11.20
2016,04,25,11,49,11.20
2016,04,25,11,50,11.30
2016,04,25,11,51,11.30
2016,04,25,11,52,11.30
2016,04,25,11,53,11.40
2016,04,25,11,54,11.50
2016,04,25,11,55,11.50
2016,04,25,11,56,11.70
2016,04,25,11,57,11.80
2016,04,25,11,58,11.90
2016,04,25,11,59,12.00
2016,04,25,12,00,12.10
2016,04,25,12,01,12.10
2016,04,25,12,02,12.20
2016,04,25,12,03,12.30
2016,04,25,12,04,12.30
2016,04,25,12,05,12.30
2016,04,25,12,06,12.20
2016,04,25,12,07,12.10
2016,04,25,12,08,12.00
2016,04,25,12,09,11.90
2016,04,25,12,10,11.90
2016,04,25,12,11,12.00
2016,04,25,12,12,12.10
2016,04,25,12,13,12.20
2016,04,25,12,14,12.30
2016,04,25,12,15,12.50
2016,04,25,12,16,12.70
2016,04,25,12,17,12.80
2016,04,25,12,18,13.00
2016,04,25,12,19,13.00
2016,04,25,12,20,13.10
2016,04,25,12,21,13.20
2016,04,25,12,22,13.30
2016,04,25,12,23,13.30
2016,04,25,12,24,13.20
2016,04,25,12,25,13.10
2016,04,25,12,26,13.10
2016,04,25,12,27,13.10
2016,04,25,12,28,13.10
2016,04,25,12,29,13.10
2016,04,25,12,30,13.20
2016,04,25,12,31,13.10
2016,04,25,12,32,13.10
2016,04,25,12,33,13.10
2016,04,25,12,34,13.10
2016,04,25,12,35,13.10
2016,04,25,12,36,13.10
2016,04,25,12,37,13.00
2016,04,25,12,38,12.80
2016,04,25,12,39,12.70
2016,04,25,12,40,12.70
2016,04,25,12,41,12.70
2016,04,25,12,42,12.80
2016,04,25,12,43,12.80
2016,04,25,12,44,12.80
2016,04,25,12,45,12.80
2016,04,25,12,46,12.90
2016,04,25,12,47,13.00
2016,04,25,12,48,13.20
2016,04,25,12,49,13.30
2016,04,25,12,50,13.40
2016,04,25,12,51,13.50
2016,04,25,12,52,13.70
2016,04,25,12,53,13.80
2016,04,25,12,54,13.90
2016,04,25,12,55,13.90
2016,04,25,12,56,13.90
2016,04,25,12,57,13.80
2016,04,25,12,58,13.80
2016,04,25,12,59,13.70
2016,04,25,13,00,13.60
2016,04,25,13,01,13.50
2016,04,25,13,02,13.40
2016,04,25,13,03,13.40
2016,04,25,13,04,13.30
2016,04,25,13,05,13.30
2016,04,25,13,06,13.30
2016,04,25,13,07,13.30
2016,04,25,13,08,13.30
2016,04,25,13,09,13.30
2016,04,25,13,10,13.40
2016,04,25,13,11,13.50
2016,04,25,13,12,13.60
2016,04,25,13,13,13.70
2016,04,25,13,14,13.90
2016,04,25,13,15,14.00
2016,04,25,13,16,14.00
2016,04,25,13,17,13.80
2016,04,25,13,18,13.70
2016,04,25,13,19,13.60
2016,04,25,13,20,13.60
2016,04,25,13,21,13.60
2016,04,25,13,22,13.70
2016,04,25,13,23,13.60
2016,04,25,13,24,13.60
2016,04,25,13,25,13.50
2016,04,25,13,26,13.40
2016,04,25,13,27,13.20
2016,04,25,13,28,12.90
2016,04,25,13,29,12.80
2016,04,25,13,30,12.60
2016,04,25,13,31,12.60
2016,04,25,13,32,12.60
2016,04,25,13,33,12.70
2016,04,25,13,34,12.80
2016,04,25,13,35,13.00
2016,04,25,13,36,13.10
2016,04,25,13,37,13.30
2016,04,25,13,38,13.30
2016,04,25,13,39,13.40
2016,04,25,13,40,13.40
2016,04,25,13,41,13.30
2016,04,25,13,42,13.30
2016,04,25,13,43,13.30
2016,04,25,13,44,13.30
2016,04,25,13,45,13.30
2016,04,25,13,46,13.30
2016,04,25,13,47,13.30
2016,04,25,13,48,13.30
2016,04,25,13,49,13.40
2016,04,25,13,50,13.40
2016,04,25,13,51,13.40
2016,04,25,13,52,13.40
2016,04,25,13,53,13.40
2016,04,25,13,54,13.40
2016,04,25,13,55,13.40
2016,04,25,13,56,13.50
2016,04,25,13,57,13.50
2016,04,25,13,58,13.50
2016,04,25,13,59,13.50
2016,04,25,14,00,13.40
2016,04,25,14,01,13.30
2016,04,25,14,02,13.20
2016,04,25,14,03,13.20
2016,04,25,14,04,13.20
2016,04,25,14,05,13.10
2016,04,25,14,06,13.00
2016,04,25,14,07,12.90
2016,04,25,14,08,12.90
2016,04,25,14,09,12.80
2016,04,25,14,10,12.70
2016,04,25,14,11,12.60
2016,04,25,14,12,12.60
2016,04,25,14,13,12.50
2016,04,25,14,14,12.50
2016,04,25,14,15,12.50
2016,04,25,14,16,12.60
2016,04,25,14,17,12.60
2016,04,25,14,18,12.70
2016,04,25,14,19,12.80
2016,04,25,14,20,12.90
2016,04,25,14,21,13.10
2016,04,25,14,22,13.30
2016,04,25,14,23,13.50
2016,04,25,14,24,13.60
2016,04,25,14,25,13.80
2016,04,25,14,26,13.80
2016,04,25,14,27,13.80
2016,04,25,14,28,13.80
2016,04,25,14,29,13.80
2016,04,25,14,30,13.90
2016,04,25,14,31,13.90
2016,04,25,14,32,13.90
2016,04,25,14,33,13.90
2016,04,25,14,34,13.80
2016,04,25,14,35,13.70
2016,04,25,14,36,13.70
2016,04,25,14,37,13.70
2016,04,25,14,38,13.70
2016,04,25,14,39,13.80
2016,04,25,14,40,13.80
2016,04,25,14,41,13.80
2016,04,25,14,42,13.80
2016,04,25,14,43,13.70
2016,04,25,14,44,13.70
2016,04,25,14,45,13.70
2016,04,25,14,46,13.70
2016,04,25,14,47,13.60
2016,04,25,14,48,13.50
2016,04,25,14,49,13.40
2016,04,25,14,50,13.50
2016,04,25,14,51,13.60
2016,04,25,14,52,13.70
2016,04,25,14,53,13.90
2016,04,25,14,54,13.90
2016,04,25,14,55,13.90
2016,04,25,14,56,13.90
2016,04,25,14,57,13.90
2016,04,25,14,58,13.90
2016,04,25,14,59,13.90
2016,04,25,15,00,14.00
2016,04,25,15,01,14.00
2016,04,25,15,02,14.00
2016,04,25,15,03,14.00
2016,04,25,15,04,14.00
2016,04,25,15,05,14.10
2016,04,25,15,06,14.30
2016,04,25,15,07,14.30
2016,04,25,15,08,14.40
2016,04,25,15,09,14.40
2016,04,25,15,10,14.50
2016,04,25,15,11,14.50
2016,04,25,15,12,14.40
2016,04,25,15,13,14.40
2016,04,25,15,14,14.40
2016,04,25,15,15,14.40
2016,04,25,15,16,14.30
2016,04,25,15,17,14.30
2016,04,25,15,18,14.40
2016,04,25,15,19,14.40
2016,04,25,15,20,14.50
2016,04,25,15,21,14.60
2016,04,25,15,22,14.60
2016,04,25,15,23,14.60
2016,04,25,15,24,14.60
2016,04,25,15,25,14.60
2016,04,25,15,26,14.60
2016,04,25,15,27,14.60
2016,04,25,15,28,14.60
2016,04,25,15,29,14.60
2016,04,25,15,30,14.60
2016,04,25,15,31,14.60
2016,04,25,15,32,14.60
2016,04,25,15,33,14.70
2016,04,25,15,34,14.70
2016,04,25,15,35,14.70
2016,04,25,15,36,14.70
2016,04,25,15,37,14.60
2016,04,25,15,38,14.60
2016,04,25,15,39,14.60
2016,04,25,15,40,14.50
2016,04,25,15,41,14.50
2016,04,25,15,42,14.50
2016,04,25,15,43,14.40
2016,04,25,15,44,14.40
2016,04,25,15,45,14.40
2016,04,25,15,46,14.50
2016,04,25,15,47,14.50
2016,04,25,15,48,14.60
2016,04,25,15,49,14.60
2016,04,25,15,50,14.60
2016,04,25,15,51,14.60
2016,04,25,15,52,14.70
2016,04,25,15,53,14.80
2016,04,25,15,54,14.80
2016,04,25,15,55,14.90
2016,04,25,15,56,15.00
2016,04,25,15,57,15.10
2016,04,25,15,58,15.20
2016,04,25,15,59,15.30
2016,04,25,16,00,15.20
2016,04,25,16,01,15.20
2016,04,25,16,02,15.20
2016,04,25,16,03,15.20
2016,04,25,16,04,15.20
2016,04,25,16,05,15.20
2016,04,25,16,06,15.20
2016,04,25,16,07,15.20
2016,04,25,16,08,15.20
2016,04,25,16,09,15.10
2016,04,25,16,10,15.00
2016,04,25,16,11,15.00
2016,04,25,16,12,14.90
2016,04,25,16,13,14.80
2016,04,25,16,14,14.70
2016,04,25,16,15,14.60
2016,04,25,16,16,14.50
2016,04,25,16,17,14.50
2016,04,25,16,18,14.50
2016,04,25,16,19,14.60
2016,04,25,16,20,14.60
2016,04,25,16,21,14.70
2016,04,25,16,22,14.70
2016,04,25,16,23,14.70
2016,04,25,16,24,14.60
2016,04,25,16,25,14.50
2016,04,25,16,26,14.40
2016,04,25,16,27,14.40
2016,04,25,16,28,14.40
2016,04,25,16,29,14.40
2016,04,25,16,30,14.50
2016,04,25,16,31,14.50
2016,04,25,16,32,14.50
2016,04,25,16,33,14.50
2016,04,25,16,34,14.50
2016,04,25,16,35,14.50
2016,04,25,16,36,14.60
2016,04,25,16,37,14.70
2016,04,25,16,38,14.80
2016,04,25,16,39,14.90
2016,04,25,16,40,15.10
2016,04,25,16,41,15.10
2016,04,25,16,42,15.10
2016,04,25,16,43,15.00
2016,04,25,16,44,15.10
2016,04,25,16,45,15.00
2016,04,25,16,46,15.00
2016,04,25,16,47,14.90
2016,04,25,16,48,14.90
2016,04,25,16,49,14.90
2016,04,25,16,50,15.00
2016,04,25,16,51,15.10
2016,04,25,16,52,15.20
2016,04,25,16,53,15.30
2016,04,25,16,54,15.30
2016,04,25,16,55,15.20
2016,04,25,16,56,15.10
2016,04,25,16,57,15.10
2016,04,25,16,58,15.10
2016,04,25,16,59,15.10
2016,04,25,17,00,15.10
2016,04,25,17,01,15.10
2016,04,25,17,02,15.10
2016,04,25,17,03,15.00
2016,04,25,17,04,14.90
2016,04,25,17,05,14.90
2016,04,25,17,06,15.00
2016,04,25,17,07,15.00
2016,04,25,17,08,15.00
2016,04,25,17,09,15.10
2016,04,25,17,10,15.20
2016,04,25,17,11,15.30
2016,04,25,17,12,15.30
2016,04,25,17,13,15.30
2016,04,25,17,14,15.30
2016,04,25,17,15,15.30
2016,04,25,17,16,15.10
2016,04,25,17,17,15.00
2016,04,25,17,18,15.00
2016,04,25,17,19,15.10
2016,04,25,17,20,15.10
2016,04,25,17,21,15.00
2016,04,25,17,22,15.00
2016,04,25,17,23,15.00
2016,04,25,17,24,15.00
2016,04,25,17,25,15.10
2016,04,25,17,26,15.10
2016,04,25,17,27,15.10
2016,04,25,17,28,15.10
2016,04,25,17,29,15.10
2016,04,25,17,30,15.10
2016,04,25,17,31,15.20
2016,04,25,17,32,15.30
2016,04,25,17,33,15.30
2016,04,25,17,34,15.20
2016,04,25,17,35,15.20
2016,04,25,17,36,15.20
2016,04,25,17,37,15.20
2016,04,25,17,38,15.10
2016,04,25,17,39,15.00
2016,04,25,17,40,15.00
2016,04,25,17,41,14.90
2016,04,25,17,42,14.80
2016,04,25,17,43,14.80
2016,04,25,17,44,14.70